Total_Precipitation_Accumulation
0.00 0.00 0.00 0.00 0.00 0.00 0.00 0.00 0.00 0.00 0.00 0.00 0.00 0.00 0.00 0.00 0.00 0.00 0.00 0.00 0.00 0.01 0.02 0.01 0.01 0.02 0.04 0.02 0.02 0.06 0.04 0.03 0.05 0.11 0.24 0.21 0.15 0.07 0.07 0.15 0.08 0.03 0.06
0.00 0.00 0.00 0.00 0.00 0.00 0.00 0.00 0.00 0.00 0.00 0.00 0.00 0.00 0.00 0.00 0.00 0.00 0.00 0.00 0.01 0.02 0.02 0.01 0.01 0.03 0.03 0.01 0.03 0.03 0.01 0.01 0.02 0.07 0.16 0.20 0.10 0.05 0.05 0.14 0.04 0.02 0.04
0.00 0.00 0.00 0.00 0.00 0.00 0.00 0.00 0.00 0.00 0.00 0.00 0.00 0.00 0.00 0.00 0.00 0.00 0.01 0.03 0.02 0.04 0.04 0.02 0.03 0.09 0.04 0.02 0.02 0.00 0.00 0.00 0.01 0.07 0.20 0.12 0.09 0.06 0.03 0.02 0.02 0.03 0.04
0.00 0.00 0.00 0.00 0.00 0.00 0.00 0.00 0.01 0.01 0.02 0.00 0.02 0.01 0.01 0.00 0.01 0.04 0.02 0.01 0.09 0.17 0.16 0.16 0.18 0.15 0.05 0.02 0.01 0.00 0.00 0.00 0.02 0.06 0.22 0.16 0.07 0.09 0.02 0.02 0.03 0.03 0.03
0.00 0.00 0.00 0.02 0.00 0.00 0.05 0.04 0.01 0.02 0.03 0.06 0.11 0.03 0.00 0.00 0.11 0.23 0.21 0.21 0.36 0.37 0.36 0.35 0.25 0.15 0.05 0.00 0.00 0.00 0.00 0.01 0.02 0.05 0.16 0.14 0.03 0.07 0.05 0.03 0.02 0.02 0.03
0.00 0.00 0.03 0.04 0.00 0.01 0.12 0.13 0.30 0.42 0.61 0.86 0.60 0.37 0.19 0.31 0.47 0.47 0.44 0.42 0.45 0.52 0.38 0.35 0.37 0.20 0.02 0.00 0.00 0.00 0.00 0.00 0.03 0.02 0.05 0.06 0.05 0.04 0.05 0.02 0.02 0.02 0.02
0.00 0.00 0.03 0.07 0.00 0.02 0.10 0.21 0.56 1.01 1.37 2.37 2.01 1.19 1.47 1.71 1.40 1.09 0.68 0.54 0.49 0.50 0.53 0.42 0.30 0.20 0.07 0.03 0.08 0.04 0.00 0.02 0.03 0.05 0.01 0.01 0.03 0.04 0.02 0.02 0.02 0.01 0.01
0.00 0.00 0.00 0.04 0.00 0.02 0.04 0.02 0.28 0.70 1.05 1.82 2.60 2.65 2.82 2.43 1.59 1.22 0.74 0.57 0.53 0.50 0.44 0.46 0.32 0.29 0.14 0.23 0.18 0.10 0.09 0.04 0.02 0.02 0.01 0.00 0.02 0.03 0.03 0.02 0.02 0.02 0.01
0.00 0.00 0.01 0.01 0.00 0.04 0.11 0.06 0.08 0.09 0.33 1.04 1.65 1.58 1.73 2.56 1.91 1.40 0.86 0.63 0.69 0.70 0.37 0.32 0.21 0.27 0.30 0.28 0.10 0.08 0.04 0.01 0.00 0.01 0.00 0.00 0.03 0.04 0.03 0.02 0.02 0.01 0.01
0.00 0.00 0.01 0.02 0.01 0.00 0.01 0.03 0.07 0.18 0.35 0.44 1.12 1.25 0.99 1.55 1.79 1.33 0.82 0.59 0.72 0.67 0.48 0.34 0.40 0.53 0.45 0.27 0.11 0.04 0.02 0.00 0.00 0.00 0.00 0.01 0.04 0.03 0.03 0.03 0.02 0.01 0.02
0.00 0.00 0.00 0.02 0.02 0.01 0.01 0.01 0.07 0.19 0.22 0.54 1.09 1.25 1.04 1.01 1.64 1.33 0.91 0.58 0.62 0.69 0.58 0.46 0.53 0.62 0.46 0.31 0.18 0.07 0.01 0.00 0.00 0.00 0.00 0.02 0.03 0.04 0.03 0.02 0.01 0.02 0.02
0.00 0.00 0.00 0.02 0.01 0.01 0.02 0.03 0.05 0.08 0.13 0.14 1.00 1.20 1.29 0.65 1.04 0.95 1.02 0.75 0.68 0.88 0.65 0.70 0.59 0.46 0.35 0.24 0.15 0.08 0.03 0.00 0.00 0.00 0.00 0.02 0.03 0.03 0.03 0.02 0.03 0.03 0.03
0.00 0.00 0.00 0.01 0.02 0.02 0.01 0.04 0.09 0.14 0.18 0.16 0.26 0.73 1.61 0.79 1.06 0.89 1.10 0.90 0.80 1.21 0.80 0.76 0.59 0.42 0.26 0.23 0.18 0.09 0.13 0.01 0.00 0.00 0.00 0.02 0.04 0.03 0.03 0.02 0.03 0.03 0.03
0.00 0.00 0.00 0.00 0.00 0.03 0.03 0.01 0.07 0.12 0.18 0.18 0.17 0.16 0.84 0.68 0.80 0.87 0.70 0.72 0.65 1.12 0.74 0.54 0.37 0.31 0.31 0.29 0.24 0.13 0.05 0.00 0.00 0.00 0.00 0.02 0.05 0.04 0.03 0.03 0.04 0.03 0.03
0.00 0.00 0.00 0.00 0.00 0.00 0.01 0.01 0.01 0.05 0.12 0.22 0.21 0.06 0.36 0.58 0.50 0.81 0.62 0.62 0.48 1.02 0.61 0.34 0.39 0.31 0.32 0.30 0.28 0.16 0.02 0.00 0.00 0.00 0.00 0.02 0.04 0.04 0.03 0.04 0.04 0.04 0.03
0.00 0.00 0.00 0.01 0.00 0.00 0.01 0.01 0.01 0.01 0.05 0.09 0.13 0.08 0.03 0.23 0.44 0.85 0.74 0.67 0.46 0.71 0.58 0.47 0.31 0.39 0.35 0.44 0.21 0.11 0.01 0.00 0.00 0.00 0.00 0.01 0.03 0.03 0.04 0.05 0.05 0.03 0.03
0.00 0.00 0.00 0.00 0.00 0.01 0.01 0.00 0.00 0.00 0.02 0.04 0.06 0.12 0.04 0.03 0.18 0.44 0.63 0.50 0.51 0.58 0.48 0.61 0.56 0.44 0.42 0.50 0.19 0.06 0.00 0.00 0.00 0.00 0.00 0.01 0.02 0.02 0.04 0.05 0.05 0.03 0.02
0.00 0.00 0.00 0.00 0.00 0.01 0.01 0.00 0.00 0.01 0.02 0.03 0.08 0.18 0.06 0.06 0.11 0.19 0.37 0.62 0.51 0.56 0.35 0.40 0.65 0.48 0.37 0.33 0.15 0.04 0.00 0.00 0.00 0.00 0.00 0.00 0.01 0.01 0.02 0.03 0.03 0.02 0.03
0.00 0.00 0.00 0.00 0.01 0.01 0.02 0.00 0.01 0.00 0.02 0.05 0.10 0.19 0.16 0.12 0.17 0.16 0.26 0.38 0.67 0.43 0.35 0.45 0.55 0.60 0.34 0.26 0.13 0.03 0.00 0.00 0.00 0.00 0.00 0.00 0.00 0.00 0.01 0.02 0.02 0.01 0.01
0.00 0.00 0.00 0.00 0.01 0.01 0.02 0.01 0.02 0.01 0.02 0.07 0.14 0.24 0.30 0.23 0.33 0.36 0.35 0.25 0.32 0.49 0.43 0.58 0.69 0.62 0.43 0.22 0.11 0.04 0.01 0.00 0.00 0.00 0.00 0.00 0.00 0.00 0.00 0.01 0.01 0.00 0.01
0.00 0.00 0.00 0.00 0.00 0.00 0.00 0.01 0.01 0.01 0.01 0.03 0.07 0.14 0.36 0.48 0.42 0.57 0.53 0.48 0.37 0.17 0.37 0.46 0.80 0.77 0.52 0.26 0.11 0.06 0.05 0.02 0.00 0.00 0.00 0.00 0.00 0.00 0.00 0.01 0.00 0.00 0.00
0.00 0.00 0.00 0.00 0.00 0.00 0.00 0.01 0.00 0.00 0.00 0.01 0.03 0.04 0.11 0.43 0.70 0.59 0.46 0.47 0.56 0.26 0.15 0.28 0.56 0.86 0.60 0.20 0.05 0.01 0.01 0.01 0.03 0.01 0.00 0.00 0.00 0.00 0.00 0.00 0.00 0.00 0.00
0.00 0.00 0.00 0.00 0.00 0.00 0.01 0.01 0.01 0.02 0.01 0.01 0.02 0.02 0.05 0.13 0.41 0.70 0.54 0.42 0.55 0.36 0.14 0.09 0.20 0.49 0.36 0.15 0.03 0.02 0.04 0.04 0.04 0.02 0.00 0.00 0.00 0.00 0.00 0.00 0.00 0.00 0.00
0.00 0.00 0.00 0.00 0.00 0.00 0.01 0.01 0.01 0.01 0.00 0.00 0.00 0.01 0.02 0.09 0.17 0.45 0.67 0.52 0.43 0.55 0.37 0.10 0.05 0.21 0.26 0.08 0.06 0.06 0.06 0.09 0.09 0.03 0.01 0.00 0.00 0.00 0.00 0.00 0.00 0.00 0.00
0.00 0.00 0.00 0.00 0.00 0.00 0.01 0.00 0.00 0.00 0.00 0.00 0.00 0.00 0.01 0.03 0.10 0.20 0.43 0.56 0.52 0.46 0.45 0.31 0.14 0.08 0.13 0.10 0.05 0.03 0.04 0.09 0.10 0.03 0.02 0.02 0.01 0.00 0.00 0.00 0.00 0.00 0.00
0.00 0.00 0.00 0.00 0.00 0.01 0.01 0.01 0.00 0.00 0.00 0.00 0.00 0.00 0.00 0.02 0.05 0.09 0.23 0.30 0.42 0.48 0.56 0.52 0.25 0.16 0.08 0.11 0.11 0.09 0.02 0.03 0.05 0.03 0.01 0.02 0.04 0.01 0.00 0.00 0.00 0.00 0.00